<?xml version="1.0"?>
<gpx xmlns="http://www.topografix.com/GPX/1/1" xmlns:xsi="http://www.w3.org/2001/XMLSchema-instance" version="1.1" creator="GPX RubyGem 1.0.0 -- http://dougfales.github.io/gpx/" xsi:schemaLocation="http://www.topografix.com/GPX/1/1 http://www.topografix.com/GPX/1/1/gpx.xsd">
  <metadata>
    <name/>
    <time>2026-05-10T19:16:33+00:00</time>
    <bound minlat="90.0" minlon="180.0" maxlat="-90.0" maxlon="-180.0"/>
  </metadata>
  <trk>
    <name/>
    <trkseg>
      <trkpt lat="51.509964" lon="7.16695">
        <time>1970-01-01T00:00:00+00:00</time>
        <ele>62.0</ele>
      </trkpt>
      <trkpt lat="51.509912" lon="7.166661">
        <time>1970-01-01T00:00:00+00:00</time>
        <ele>62.0</ele>
      </trkpt>
      <trkpt lat="51.509771" lon="7.166613">
        <time>1970-01-01T00:00:00+00:00</time>
        <ele>62.0</ele>
      </trkpt>
      <trkpt lat="51.509798" lon="7.166413">
        <time>1970-01-01T00:00:00+00:00</time>
        <ele>63.0</ele>
      </trkpt>
      <trkpt lat="51.509804" lon="7.165719">
        <time>1970-01-01T00:00:00+00:00</time>
        <ele>65.0</ele>
      </trkpt>
      <trkpt lat="51.509951" lon="7.164846">
        <time>1970-01-01T00:00:00+00:00</time>
        <ele>60.0</ele>
      </trkpt>
      <trkpt lat="51.509973" lon="7.164519">
        <time>1970-01-01T00:00:00+00:00</time>
        <ele>58.0</ele>
      </trkpt>
      <trkpt lat="51.509913" lon="7.164368">
        <time>1970-01-01T00:00:00+00:00</time>
        <ele>58.0</ele>
      </trkpt>
      <trkpt lat="51.50974" lon="7.164136">
        <time>1970-01-01T00:00:00+00:00</time>
        <ele>59.0</ele>
      </trkpt>
      <trkpt lat="51.509643" lon="7.164066">
        <time>1970-01-01T00:00:00+00:00</time>
        <ele>61.0</ele>
      </trkpt>
      <trkpt lat="51.509564" lon="7.164064">
        <time>1970-01-01T00:00:00+00:00</time>
        <ele>61.0</ele>
      </trkpt>
      <trkpt lat="51.509478" lon="7.164087">
        <time>1970-01-01T00:00:00+00:00</time>
        <ele>62.0</ele>
      </trkpt>
      <trkpt lat="51.509407" lon="7.164105">
        <time>1970-01-01T00:00:00+00:00</time>
        <ele>63.0</ele>
      </trkpt>
      <trkpt lat="51.509345" lon="7.163732">
        <time>1970-01-01T00:00:00+00:00</time>
        <ele>63.0</ele>
      </trkpt>
      <trkpt lat="51.50928" lon="7.163394">
        <time>1970-01-01T00:00:00+00:00</time>
        <ele>62.0</ele>
      </trkpt>
      <trkpt lat="51.509298" lon="7.163161">
        <time>1970-01-01T00:00:00+00:00</time>
        <ele>64.0</ele>
      </trkpt>
      <trkpt lat="51.509334" lon="7.162925">
        <time>1970-01-01T00:00:00+00:00</time>
        <ele>65.0</ele>
      </trkpt>
      <trkpt lat="51.509543" lon="7.162991">
        <time>1970-01-01T00:00:00+00:00</time>
        <ele>65.0</ele>
      </trkpt>
      <trkpt lat="51.509543" lon="7.162991">
        <time>1970-01-01T00:00:00+00:00</time>
        <ele>65.0</ele>
      </trkpt>
      <trkpt lat="51.509334" lon="7.162925">
        <time>1970-01-01T00:00:00+00:00</time>
        <ele>65.0</ele>
      </trkpt>
      <trkpt lat="51.509298" lon="7.163161">
        <time>1970-01-01T00:00:00+00:00</time>
        <ele>64.0</ele>
      </trkpt>
      <trkpt lat="51.50928" lon="7.163394">
        <time>1970-01-01T00:00:00+00:00</time>
        <ele>62.0</ele>
      </trkpt>
      <trkpt lat="51.509345" lon="7.163732">
        <time>1970-01-01T00:00:00+00:00</time>
        <ele>63.0</ele>
      </trkpt>
      <trkpt lat="51.509407" lon="7.164105">
        <time>1970-01-01T00:00:00+00:00</time>
        <ele>63.0</ele>
      </trkpt>
      <trkpt lat="51.509478" lon="7.164087">
        <time>1970-01-01T00:00:00+00:00</time>
        <ele>62.0</ele>
      </trkpt>
      <trkpt lat="51.509564" lon="7.164064">
        <time>1970-01-01T00:00:00+00:00</time>
        <ele>61.0</ele>
      </trkpt>
      <trkpt lat="51.509643" lon="7.164066">
        <time>1970-01-01T00:00:00+00:00</time>
        <ele>61.0</ele>
      </trkpt>
      <trkpt lat="51.50974" lon="7.164136">
        <time>1970-01-01T00:00:00+00:00</time>
        <ele>59.0</ele>
      </trkpt>
      <trkpt lat="51.509913" lon="7.164368">
        <time>1970-01-01T00:00:00+00:00</time>
        <ele>58.0</ele>
      </trkpt>
      <trkpt lat="51.509973" lon="7.164519">
        <time>1970-01-01T00:00:00+00:00</time>
        <ele>58.0</ele>
      </trkpt>
      <trkpt lat="51.509951" lon="7.164846">
        <time>1970-01-01T00:00:00+00:00</time>
        <ele>60.0</ele>
      </trkpt>
      <trkpt lat="51.509804" lon="7.165719">
        <time>1970-01-01T00:00:00+00:00</time>
        <ele>65.0</ele>
      </trkpt>
      <trkpt lat="51.509798" lon="7.166413">
        <time>1970-01-01T00:00:00+00:00</time>
        <ele>63.0</ele>
      </trkpt>
      <trkpt lat="51.509771" lon="7.166613">
        <time>1970-01-01T00:00:00+00:00</time>
        <ele>62.0</ele>
      </trkpt>
      <trkpt lat="51.509912" lon="7.166661">
        <time>1970-01-01T00:00:00+00:00</time>
        <ele>62.0</ele>
      </trkpt>
      <trkpt lat="51.509964" lon="7.16695">
        <time>1970-01-01T00:00:00+00:00</time>
        <ele>62.0</ele>
      </trkpt>
    </trkseg>
  </trk>
</gpx>
